Location: Auckland
(36.8670°S, 174.7670°E)
Time: 08:33:29
(UTC+13:00)

Cosmos 1606 - Pass Details

Date: 24 January 2019
Orbit: 506 x 528 km, 82.5° (Epoch: 20 February)

Event Time Altitude Azimuth Distance (km) Brightness Sun altitude
Exits shadow 23:25:34 49° 214° (SW) 701 3.6 -26.4°
Drops below altitude 10° 23:28:45 10° 181° (S) 1,805 6.2 -26.7°
Sets 23:30:56 0° 177° (S) 2,702 7.1 -27.0°
